• In Deutschland
  • Länderverzeichnis
  • Für 7 Tage
  • Wassertemperatur
  • Satellitenkarten
  • Wetterkarte
  • Widgets
  • user-avatar
    Anmelden

    Stündliche Wetter Kreuth

    Heute, 19 Oktober, Donnerstag

    Zeit Temperatur Niederschläge Wind Luftdruck Luftfeuchtigkeit
    00:00 +6°C° 0 mm 1 m/S 638 mmHg 68%
    01:00 +5°C° 0 mm 1 m/S 638 mmHg 65%
    02:00 +5°C° 0 mm 1 m/S 638 mmHg 63%
    03:00 +5°C° 0 mm 1 m/S 638 mmHg 62%
    04:00 +4°C° 0 mm 1 m/S 638 mmHg 60%
    05:00 +4°C° 0 mm 1 m/S 637 mmHg 58%
    06:00 +4°C° 0 mm 1 m/S 637 mmHg 57%
    07:00 +4°C° 0 mm 1 m/S 637 mmHg 55%
    08:00 +7°C° 0 mm 1 m/S 638 mmHg 50%
    09:00 +10°C° 0 mm 1 m/S 639 mmHg 45%
    10:00 +12°C° 0 mm 0 m/S 640 mmHg 40%
    11:00 +14°C° 0 mm 1 m/S 640 mmHg 39%
    12:00 +15°C° 0 mm 1 m/S 641 mmHg 38%
    13:00 +16°C° 0 mm 1 m/S 641 mmHg 37%
    14:00 +15°C° 0 mm 1 m/S 640 mmHg 45%
    15:00 +14°C° 0 mm 1 m/S 640 mmHg 52%
    16:00 +13°C° 0 mm 1 m/S 639 mmHg 59%
    17:00 +11°C° 0 mm 1 m/S 639 mmHg 64%
    18:00 +9°C° 0 mm 1 m/S 638 mmHg 69%
    19:00 +7°C° 0 mm 1 m/S 638 mmHg 73%
    20:00 +6°C° 0 mm 1 m/S 638 mmHg 71%
    21:00 +6°C° 0 mm 1 m/S 638 mmHg 69%
    22:00 +5°C° 0 mm 1 m/S 638 mmHg 67%
    23:00 +5°C° 0 mm 1 m/S 638 mmHg 66%

    Morgen, 20 Oktober, Freitag

    Zeit Temperatur Niederschläge Wind Luftdruck Luftfeuchtigkeit
    00:00 +4°C° 0 mm 2 m/S 638 mmHg 65%
    01:00 +4°C° 0 mm 2 m/S 638 mmHg 65%
    02:00 +3°C° 0 mm 2 m/S 638 mmHg 66%
    03:00 +3°C° 0 mm 2 m/S 638 mmHg 66%
    04:00 +3°C° 0 mm 2 m/S 638 mmHg 67%
    05:00 +4°C° 0 mm 1 m/S 638 mmHg 68%
    06:00 +4°C° 0 mm 1 m/S 638 mmHg 69%
    07:00 +4°C° 0 mm 1 m/S 638 mmHg 69%
    08:00 +7°C° 0 mm 1 m/S 639 mmHg 63%
    09:00 +10°C° 0 mm 1 m/S 641 mmHg 56%
    10:00 +13°C° 0 mm 1 m/S 642 mmHg 50%
    11:00 +13°C° 0 mm 1 m/S 642 mmHg 49%
    12:00 +14°C° 0 mm 1 m/S 642 mmHg 48%
    13:00 +15°C° 0 mm 2 m/S 642 mmHg 48%
    14:00 +14°C° 0 mm 1 m/S 642 mmHg 54%
    15:00 +13°C° 0 mm 1 m/S 642 mmHg 60%
    16:00 +12°C° 0 mm 1 m/S 642 mmHg 66%
    17:00 +10°C° 0 mm 1 m/S 641 mmHg 72%
    18:00 +8°C° 0 mm 1 m/S 641 mmHg 79%
    19:00 +6°C° 0 mm 1 m/S 640 mmHg 86%
    20:00 +6°C° 0 mm 1 m/S 641 mmHg 85%
    21:00 +6°C° 0 mm 1 m/S 641 mmHg 84%
    22:00 +6°C° 0 mm 1 m/S 641 mmHg 83%
    23:00 +6°C° 0 mm 1 m/S 641 mmHg 80%

    übermorgen, 21 Oktober, Samstag

    Zeit Temperatur Niederschläge Wind Luftdruck Luftfeuchtigkeit
    00:00 +6°C° 0 mm 1 m/S 641 mmHg 78%
    01:00 +6°C° 0 mm 1 m/S 641 mmHg 76%
    02:00 +6°C° 0 mm 1 m/S 640 mmHg 75%
    03:00 +6°C° 0 mm 1 m/S 640 mmHg 74%
    04:00 +5°C° 0 mm 1 m/S 640 mmHg 72%
    05:00 +6°C° 0 mm 1 m/S 640 mmHg 70%
    06:00 +6°C° 0 mm 1 m/S 640 mmHg 69%
    07:00 +6°C° 0 mm 1 m/S 640 mmHg 67%
    08:00 +9°C° 0 mm 1 m/S 641 mmHg 62%
    09:00 +11°C° 0 mm 1 m/S 642 mmHg 57%
    10:00 +13°C° 0 mm 1 m/S 643 mmHg 52%
    11:00 +14°C° 0 mm 1 m/S 643 mmHg 50%
    12:00 +15°C° 0 mm 1 m/S 643 mmHg 48%
    13:00 +16°C° 0 mm 1 m/S 643 mmHg 45%
    14:00 +15°C° 0 mm 1 m/S 642 mmHg 51%
    15:00 +14°C° 0 mm 1 m/S 642 mmHg 57%
    16:00 +13°C° 0 mm 1 m/S 641 mmHg 63%
    17:00 +12°C° 0 mm 1 m/S 641 mmHg 69%
    18:00 +10°C° 0 mm 1 m/S 640 mmHg 76%
    19:00 +8°C° 0 mm 1 m/S 640 mmHg 82%
    20:00 +7°C° 0 mm 1 m/S 640 mmHg 84%
    21:00 +7°C° 0 mm 1 m/S 640 mmHg 86%
    22:00 +7°C° 0 mm 1 m/S 640 mmHg 88%
    23:00 +7°C° 0,5 mm 1 m/S 640 mmHg 90%

    22 Oktober, Sonntag

    Zeit Temperatur Niederschläge Wind Luftdruck Luftfeuchtigkeit
    00:00 +6°C° 0,5 mm 1 m/S 640 mmHg 93%
    01:00 +5°C° 0,5 mm 2 m/S 640 mmHg 95%
    02:00 +5°C° 1,1 mm 2 m/S 640 mmHg 95%
    03:00 +5°C° 1,1 mm 2 m/S 640 mmHg 96%
    04:00 +4°C° 1,1 mm 2 m/S 640 mmHg 96%
    05:00 +4°C° 1,3 mm 2 m/S 639 mmHg 96%
    06:00 +3°C° 1,3 mm 2 m/S 639 mmHg 96%
    07:00 +3°C° 1,3 mm 2 m/S 639 mmHg 96%
    08:00 +3°C° 1,6 mm 2 m/S 639 mmHg 96%
    09:00 +3°C° 1,6 mm 2 m/S 639 mmHg 95%
    10:00 +3°C° 1,6 mm 2 m/S 639 mmHg 94%
    11:00 +3°C° 1,3 mm 2 m/S 639 mmHg 93%
    12:00 +2°C° 1,3 mm 2 m/S 639 mmHg 92%
    13:00 +2°C° 1,3 mm 2 m/S 639 mmHg 91%
    14:00 +2°C° 0,6 mm 2 m/S 639 mmHg 91%
    15:00 +2°C° 0,6 mm 2 m/S 639 mmHg 91%
    16:00 +2°C° 0,6 mm 2 m/S 639 mmHg 90%
    17:00 +1°C° 0,1 mm 2 m/S 639 mmHg 91%
    18:00 -1°C° 0,1 mm 2 m/S 639 mmHg 92%
    19:00 -2°C° 0,1 mm 2 m/S 639 mmHg 93%
    20:00 -2°C° 0,1 mm 2 m/S 639 mmHg 93%
    21:00 -2°C° 0,1 mm 2 m/S 640 mmHg 93%
    22:00 -2°C° 0,1 mm 2 m/S 640 mmHg 93%
    23:00 -2°C° 0,3 mm 2 m/S 640 mmHg 93%

    23 Oktober, Montag

    Zeit Temperatur Niederschläge Wind Luftdruck Luftfeuchtigkeit
    00:00 -2°C° 0,3 mm 2 m/S 640 mmHg 93%
    01:00 -2°C° 0,3 mm 2 m/S 640 mmHg 93%
    02:00 -2°C° 0,5 mm 2 m/S 640 mmHg 93%
    03:00 -2°C° 0,5 mm 3 m/S 640 mmHg 93%
    04:00 -2°C° 0,5 mm 3 m/S 640 mmHg 93%
    05:00 -2°C° 0,7 mm 3 m/S 640 mmHg 93%
    06:00 -2°C° 0,7 mm 3 m/S 640 mmHg 93%
    07:00 -2°C° 0,7 mm 2 m/S 640 mmHg 94%
    08:00 -1°C° 0,9 mm 3 m/S 641 mmHg 94%
    09:00 -1°C° 0,9 mm 3 m/S 641 mmHg 94%
    10:00 0°C° 0,9 mm 3 m/S 641 mmHg 94%
    11:00 0°C° 0,7 mm 3 m/S 641 mmHg 93%
    12:00 0°C° 0,7 mm 3 m/S 642 mmHg 93%
    13:00 +1°C° 0,7 mm 3 m/S 642 mmHg 93%
    14:00 +1°C° 0,2 mm 3 m/S 642 mmHg 93%
    15:00 +2°C° 0,2 mm 2 m/S 642 mmHg 92%
    16:00 +2°C° 0,2 mm 2 m/S 643 mmHg 92%
    17:00 +2°C° 0,1 mm 2 m/S 643 mmHg 93%
    18:00 +1°C° 0,1 mm 2 m/S 643 mmHg 93%
    19:00 +1°C° 0,1 mm 2 m/S 644 mmHg 94%
    20:00 -1°C° 0 mm 2 m/S 644 mmHg 93%
    21:00 -1°C° 0 mm 2 m/S 644 mmHg 92%
    22:00 -1°C° 0 mm 2 m/S 644 mmHg 91%
    23:00 -1°C° 0 mm 2 m/S 644 mmHg 91%

    24 Oktober, Dienstag

    Zeit Temperatur Niederschläge Wind Luftdruck Luftfeuchtigkeit
    00:00 0°C° 0 mm 1 m/S 644 mmHg 91%
    01:00 0°C° 0 mm 1 m/S 644 mmHg 90%
    02:00 0°C° 0 mm 1 m/S 643 mmHg 90%
    03:00 -2°C° 0 mm 2 m/S 643 mmHg 89%
    04:00 -2°C° 0 mm 2 m/S 643 mmHg 89%
    05:00 -2°C° 0 mm 2 m/S 643 mmHg 89%
    06:00 -2°C° 0 mm 2 m/S 644 mmHg 89%
    07:00 0°C° 0 mm 1 m/S 644 mmHg 89%
    08:00 +2°C° 0 mm 1 m/S 644 mmHg 87%
    09:00 +4°C° 0 mm 1 m/S 645 mmHg 85%
    10:00 +6°C° 0 mm 1 m/S 645 mmHg 83%
    11:00 +7°C° 0 mm 0 m/S 645 mmHg 80%
    12:00 +8°C° 0 mm 0 m/S 645 mmHg 77%
    13:00 +9°C° 0 mm 0 m/S 646 mmHg 74%
    14:00 +8°C° 0 mm 0 m/S 645 mmHg 77%
    15:00 +8°C° 0 mm 0 m/S 645 mmHg 80%
    16:00 +8°C° 0 mm 1 m/S 645 mmHg 83%
    17:00 +7°C° 0 mm 1 m/S 644 mmHg 85%
    18:00 +5°C° 0 mm 1 m/S 644 mmHg 87%
    19:00 +4°C° 0 mm 1 m/S 644 mmHg 88%
    20:00 +4°C° 0 mm 1 m/S 644 mmHg 88%
    21:00 +4°C° 0 mm 1 m/S 644 mmHg 87%
    22:00 +4°C° 0 mm 1 m/S 644 mmHg 87%
    23:00 +4°C° 0 mm 1 m/S 644 mmHg 86%
    Mehr zeigen